Time,TemperatureF,DewpointF,PressureIn,WindDirection,WindDirectionDegrees,WindSpeedMPH,WindSpeedGustMPH,Humidity,HourlyPrecipIn,Conditions,Clouds,dailyrainin,SoftwareType,DateUTC
2013-02-13 00:01:00,35.6,27.8,30.14,WSW,248,0.0,0.4,73,0.00,,,0.00,WUHU216HW,2013-02-13 07:01:00,
2013-02-13 00:11:00,35.3,27.5,30.15,SE,135,0.0,0.0,73,0.00,,,0.00,WUHU216HW,2013-02-13 07:11:00,
2013-02-13 00:21:00,35.1,27.3,30.14,ESE,113,0.7,0.7,73,0.00,,,0.00,WUHU216HW,2013-02-13 07:21:00,
2013-02-13 00:31:00,34.9,27.1,30.13,South,180,0.0,0.0,73,0.00,,,0.00,WUHU216HW,2013-02-13 07:31:00,
2013-02-13 00:41:00,34.6,26.7,30.13,SSE,158,0.4,1.1,73,0.00,,,0.00,WUHU216HW,2013-02-13 07:41:00,
2013-02-13 00:51:00,34.6,27.0,30.13,North,0,0.4,0.4,74,0.00,,,0.00,WUHU216HW,2013-02-13 07:51:00,
2013-02-13 01:01:00,34.4,27.2,30.14,North,0,0.9,1.6,75,0.00,,,0.00,WUHU216HW,2013-02-13 08:01:00,
2013-02-13 01:11:00,34.2,27.4,30.14,North,0,0.4,1.6,76,0.00,,,0.00,WUHU216HW,2013-02-13 08:11:00,
2013-02-13 01:21:00,34.2,28.0,30.13,North,0,1.3,1.3,78,0.00,,,0.00,WUHU216HW,2013-02-13 08:21:00,
2013-02-13 01:31:00,34.2,28.0,30.13,NNE,23,0.9,2.0,78,0.00,,,0.00,WUHU216HW,2013-02-13 08:31:00,
2013-02-13 01:41:00,34.2,28.3,30.12,NNE,23,1.1,1.8,79,0.00,,,0.00,WUHU216HW,2013-02-13 08:41:00,
2013-02-13 01:51:00,34.2,28.0,30.13,ENE,68,0.0,0.7,78,0.00,,,0.00,WUHU216HW,2013-02-13 08:51:00,
2013-02-13 02:01:00,34.2,27.6,30.13,SE,135,0.4,0.4,77,0.00,,,0.00,WUHU216HW,2013-02-13 09:01:00,
2013-02-13 02:11:00,33.8,27.0,30.13,SSW,203,0.0,0.4,76,0.00,,,0.00,WUHU216HW,2013-02-13 09:11:00,
2013-02-13 02:22:00,33.5,26.6,30.12,SSW,203,0.4,0.4,76,0.00,,,0.00,WUHU216HW,2013-02-13 09:22:00,
2013-02-13 02:32:00,33.1,26.3,30.12,SSW,203,0.0,0.2,76,0.00,,,0.00,WUHU216HW,2013-02-13 09:32:00,
2013-02-13 02:42:00,32.8,26.0,30.11,SW,225,0.0,0.2,76,0.00,,,0.00,WUHU216HW,2013-02-13 09:42:00,
2013-02-13 02:52:00,32.2,25.8,30.13,ENE,68,0.0,0.4,77,0.00,,,0.00,WUHU216HW,2013-02-13 09:52:00,
2013-02-13 03:02:00,32.0,25.7,30.12,North,0,0.0,0.0,77,0.00,,,0.00,WUHU216HW,2013-02-13 10:02:00,
2013-02-13 03:12:00,31.7,25.7,30.12,East,90,0.4,0.4,78,0.00,,,0.00,WUHU216HW,2013-02-13 10:12:00,
2013-02-13 03:22:00,31.3,25.3,30.11,NNE,23,0.4,0.4,78,0.00,,,0.00,WUHU216HW,2013-02-13 10:22:00,
2013-02-13 09:28:00,38.5,31.0,30.18,WSW,248,0.9,0.9,74,0.00,,,0.00,WUHU216HW,2013-02-13 16:28:00,
2013-02-13 09:38:00,40.0,32.0,30.18,WSW,248,2.0,2.9,73,0.00,,,0.00,WUHU216HW,2013-02-13 16:38:00,
2013-02-13 09:48:00,41.0,32.0,30.18,West,270,2.0,2.5,70,0.00,,,0.00,WUHU216HW,2013-02-13 16:48:00,
2013-02-13 09:58:00,41.9,31.8,30.18,WSW,248,1.3,3.8,67,0.00,,,0.00,WUHU216HW,2013-02-13 16:58:00,
2013-02-13 10:08:00,42.8,32.2,30.18,SW,225,0.4,2.2,66,0.00,,,0.00,WUHU216HW,2013-02-13 17:08:00,
2013-02-13 10:18:00,43.6,31.8,30.16,SSW,203,1.1,2.5,63,0.00,,,0.00,WUHU216HW,2013-02-13 17:18:00,
2013-02-13 10:28:00,44.3,32.5,30.15,WSW,248,0.0,1.1,63,0.00,,,0.00,WUHU216HW,2013-02-13 17:28:00,
2013-02-13 10:38:00,45.0,31.2,30.16,WSW,248,2.2,3.1,58,0.00,,,0.00,WUHU216HW,2013-02-13 17:38:00,
2013-02-13 10:48:00,45.5,30.7,30.18,North,0,1.3,2.5,56,0.00,,,0.00,WUHU216HW,2013-02-13 17:48:00,
2013-02-13 10:58:00,46.4,31.1,30.18,NNE,23,0.9,2.9,55,0.00,,,0.00,WUHU216HW,2013-02-13 17:58:00,
2013-02-13 11:09:00,47.2,31.3,30.18,WSW,248,0.4,2.0,54,0.00,,,0.00,WUHU216HW,2013-02-13 18:09:00,
2013-02-13 11:19:00,47.9,30.6,30.18,WNW,293,3.4,3.8,51,0.00,,,0.00,WUHU216HW,2013-02-13 18:19:00,
2013-02-13 11:29:00,48.6,30.8,30.17,NNW,338,1.8,3.6,50,0.00,,,0.00,WUHU216HW,2013-02-13 18:29:00,
2013-02-13 11:40:00,49.3,31.0,30.16,SW,225,1.3,3.4,49,0.00,,,0.00,WUHU216HW,2013-02-13 18:40:00,
2013-02-13 11:50:00,50.0,30.5,30.15,WSW,248,0.2,4.0,47,0.00,,,0.00,WUHU216HW,2013-02-13 18:50:00,
2013-02-13 12:00:00,50.9,31.3,30.15,SW,225,0.9,4.3,47,0.00,,,0.00,WUHU216HW,2013-02-13 19:00:00,
2013-02-13 12:10:00,51.7,31.4,30.14,SW,225,3.4,4.3,46,0.00,,,0.00,WUHU216HW,2013-02-13 19:10:00,
2013-02-13 12:20:00,52.4,29.9,30.13,NNW,338,2.0,2.9,42,0.00,,,0.00,WUHU216HW,2013-02-13 19:20:00,
2013-02-13 12:30:00,52.9,30.9,30.13,WNW,293,4.7,4.7,43,0.00,,,0.00,WUHU216HW,2013-02-13 19:30:00,
2013-02-13 12:41:00,53.6,30.4,30.12,WSW,248,4.0,4.7,41,0.00,,,0.00,WUHU216HW,2013-02-13 19:41:00,
2013-02-13 12:51:00,54.2,31.0,30.12,West,270,4.0,4.0,41,0.00,,,0.00,WUHU216HW,2013-02-13 19:51:00,
2013-02-13 13:01:00,54.5,29.4,30.11,NNW,338,2.5,6.3,38,0.00,,,0.00,WUHU216HW,2013-02-13 20:01:00,
2013-02-13 13:11:00,54.9,29.6,30.11,West,270,0.4,3.6,38,0.00,,,0.00,WUHU216HW,2013-02-13 20:11:00,
2013-02-13 13:21:00,55.8,29.7,30.10,West,270,2.0,4.5,37,0.00,,,0.00,WUHU216HW,2013-02-13 20:21:00,
2013-02-13 13:31:00,56.0,29.9,30.10,South,180,2.7,3.4,37,0.00,,,0.00,WUHU216HW,2013-02-13 20:31:00,
2013-02-13 13:41:00,56.2,29.3,30.09,WNW,293,2.2,2.5,36,0.00,,,0.00,WUHU216HW,2013-02-13 20:41:00,
2013-02-13 13:51:00,56.7,30.5,30.09,WSW,248,2.5,5.8,37,0.00,,,0.00,WUHU216HW,2013-02-13 20:51:00,
2013-02-13 14:01:00,57.1,28.1,30.09,NNW,338,2.9,6.3,33,0.00,,,0.00,WUHU216HW,2013-02-13 21:01:00,
2013-02-13 14:11:00,57.1,26.6,30.08,NW,315,1.1,6.5,31,0.00,,,0.00,WUHU216HW,2013-02-13 21:11:00,
2013-02-13 14:21:00,57.6,28.5,30.08,WNW,293,1.1,4.7,33,0.00,,,0.00,WUHU216HW,2013-02-13 21:21:00,
2013-02-13 14:32:00,57.6,27.8,30.08,North,0,1.8,6.9,32,0.00,,,0.00,WUHU216HW,2013-02-13 21:32:00,
2013-02-13 14:42:00,57.8,24.7,30.07,West,270,4.7,4.7,28,0.00,,,0.00,WUHU216HW,2013-02-13 21:42:00,
2013-02-13 14:53:00,58.0,24.9,30.07,WNW,293,2.2,5.4,28,0.00,,,0.00,WUHU216HW,2013-02-13 21:53:00,
2013-02-13 15:03:00,58.1,25.0,30.07,NW,315,3.4,4.7,28,0.00,,,0.00,WUHU216HW,2013-02-13 22:03:00,
2013-02-13 15:13:00,58.5,27.9,30.06,WSW,248,1.8,4.3,31,0.00,,,0.00,WUHU216HW,2013-02-13 22:13:00,
2013-02-13 15:23:00,58.7,24.5,30.06,West,270,4.0,4.0,27,0.00,,,0.00,WUHU216HW,2013-02-13 22:23:00,
2013-02-13 15:33:00,58.9,25.7,30.06,NW,315,2.7,3.4,28,0.00,,,0.00,WUHU216HW,2013-02-13 22:33:00,
2013-02-13 15:43:00,59.0,26.7,30.06,NW,315,1.1,3.4,29,0.00,,,0.00,WUHU216HW,2013-02-13 22:43:00,
2013-02-13 15:53:00,59.0,27.7,30.06,SW,225,2.5,6.3,30,0.00,,,0.00,WUHU216HW,2013-02-13 22:53:00,
2013-02-13 16:03:00,59.0,26.7,30.05,NNW,338,1.3,3.1,29,0.00,,,0.00,WUHU216HW,2013-02-13 23:03:00,
2013-02-13 16:13:00,59.2,25.9,30.06,WNW,293,3.4,4.7,28,0.00,,,0.00,WUHU216HW,2013-02-13 23:13:00,
2013-02-13 16:23:00,59.0,22.9,30.06,West,270,3.6,3.8,25,0.00,,,0.00,WUHU216HW,2013-02-13 23:23:00,
2013-02-13 16:33:00,59.0,23.9,30.06,NNW,338,4.3,4.9,26,0.00,,,0.00,WUHU216HW,2013-02-13 23:33:00,
2013-02-13 16:44:00,58.9,24.7,30.06,WSW,248,3.4,3.4,27,0.00,,,0.00,WUHU216HW,2013-02-13 23:44:00,
2013-02-13 16:54:00,58.7,25.5,30.05,WSW,248,1.6,3.4,28,0.00,,,0.00,WUHU216HW,2013-02-13 23:54:00,
2013-02-13 17:04:00,58.7,24.5,30.05,SW,225,4.3,5.4,27,0.00,,,0.00,WUHU216HW,2013-02-14 00:04:00,
2013-02-13 17:14:00,58.7,25.5,30.05,West,270,2.9,4.9,28,0.00,,,0.00,WUHU216HW,2013-02-14 00:14:00,
2013-02-13 17:24:00,58.1,25.9,30.05,WNW,293,2.5,5.6,29,0.00,,,0.00,WUHU216HW,2013-02-14 00:24:00,
2013-02-13 17:34:00,58.0,25.8,30.05,WNW,293,1.1,5.8,29,0.00,,,0.00,WUHU216HW,2013-02-14 00:34:00,
2013-02-13 17:44:00,57.6,25.5,30.06,West,270,1.8,5.1,29,0.00,,,0.00,WUHU216HW,2013-02-14 00:44:00,
2013-02-13 17:54:00,57.2,26.1,30.06,WNW,293,2.2,3.6,30,0.00,,,0.00,WUHU216HW,2013-02-14 00:54:00,
2013-02-13 18:04:00,56.5,26.8,30.06,West,270,2.5,4.0,32,0.00,,,0.00,WUHU216HW,2013-02-14 01:04:00,
2013-02-13 18:15:00,55.8,26.9,30.07,West,270,1.1,3.4,33,0.00,,,0.00,WUHU216HW,2013-02-14 01:15:00,
2013-02-13 18:25:00,55.3,27.2,30.07,WNW,293,1.3,2.9,34,0.00,,,0.00,WUHU216HW,2013-02-14 01:25:00,
2013-02-13 18:36:00,54.5,27.9,30.07,NW,315,1.1,2.5,36,0.00,,,0.00,WUHU216HW,2013-02-14 01:36:00,
2013-02-13 18:46:00,54.0,27.5,30.07,WSW,248,0.0,1.6,36,0.00,,,0.00,WUHU216HW,2013-02-14 01:46:00,
2013-02-13 18:56:00,53.3,27.6,30.08,NW,315,0.0,1.1,37,0.00,,,0.00,WUHU216HW,2013-02-14 01:56:00,
2013-02-13 19:06:00,52.6,27.5,30.08,WNW,293,0.9,2.0,38,0.00,,,0.00,WUHU216HW,2013-02-14 02:06:00,
2013-02-13 19:16:00,51.8,26.9,30.08,NNW,338,0.0,0.4,38,0.00,,,0.00,WUHU216HW,2013-02-14 02:16:00,
2013-02-13 19:26:00,51.1,26.9,30.08,NNW,338,0.0,0.4,39,0.00,,,0.00,WUHU216HW,2013-02-14 02:26:00,
2013-02-13 19:36:00,50.4,27.0,30.08,ENE,68,0.4,0.4,40,0.00,,,0.00,WUHU216HW,2013-02-14 02:36:00,
2013-02-13 19:46:00,49.5,26.7,30.08,ESE,113,0.4,1.1,41,0.00,,,0.00,WUHU216HW,2013-02-14 02:46:00,
2013-02-13 19:56:00,48.6,27.0,30.08,SE,135,0.4,1.6,43,0.00,,,0.00,WUHU216HW,2013-02-14 02:56:00,
2013-02-13 20:06:00,47.9,26.8,30.08,ESE,113,0.2,1.6,44,0.00,,,0.00,WUHU216HW,2013-02-14 03:06:00,
2013-02-13 20:16:00,47.2,26.7,30.08,ESE,113,1.1,1.1,45,0.00,,,0.00,WUHU216HW,2013-02-14 03:16:00,
2013-02-13 20:26:00,46.6,26.8,30.08,ESE,113,0.7,1.1,46,0.00,,,0.00,WUHU216HW,2013-02-14 03:26:00,
2013-02-13 20:36:00,46.1,26.8,30.09,ESE,113,0.9,1.3,47,0.00,,,0.00,WUHU216HW,2013-02-14 03:36:00,
2013-02-13 20:46:00,45.5,26.9,30.08,ESE,113,0.7,1.3,48,0.00,,,0.00,WUHU216HW,2013-02-14 03:46:00,
2013-02-13 20:56:00,45.0,27.0,30.09,SE,135,1.1,1.6,49,0.00,,,0.00,WUHU216HW,2013-02-14 03:56:00,
2013-02-13 21:06:00,44.6,27.2,30.09,ESE,113,1.1,1.8,50,0.00,,,0.00,WUHU216HW,2013-02-14 04:06:00,
2013-02-13 21:17:00,44.3,27.3,30.10,ESE,113,1.1,2.7,51,0.00,,,0.00,WUHU216HW,2013-02-14 04:17:00,
2013-02-13 21:27:00,43.9,27.5,30.09,ESE,113,0.7,1.6,52,0.00,,,0.00,WUHU216HW,2013-02-14 04:27:00,
2013-02-13 21:37:00,43.6,27.1,30.10,ESE,113,0.4,1.3,52,0.00,,,0.00,WUHU216HW,2013-02-14 04:37:00,
2013-02-13 21:47:00,43.2,26.7,30.10,ESE,113,1.3,1.3,52,0.00,,,0.00,WUHU216HW,2013-02-14 04:47:00,
2013-02-13 21:57:00,42.8,26.8,30.10,ESE,113,0.4,1.1,53,0.00,,,0.00,WUHU216HW,2013-02-14 04:57:00,
2013-02-13 22:07:00,42.7,26.6,30.10,ESE,113,0.2,1.1,53,0.00,,,0.00,WUHU216HW,2013-02-14 05:07:00,
2013-02-13 22:17:00,42.5,26.6,30.11,East,90,1.8,1.8,53,0.00,,,0.00,WUHU216HW,2013-02-14 05:17:00,
2013-02-13 22:27:00,41.9,26.9,30.11,SE,135,1.1,2.2,55,0.00,,,0.00,WUHU216HW,2013-02-14 05:27:00,
2013-02-13 22:37:00,41.9,26.9,30.11,East,90,1.1,2.5,55,0.00,,,0.00,WUHU216HW,2013-02-14 05:37:00,
2013-02-13 22:47:00,41.8,27.2,30.11,ESE,113,1.3,2.0,56,0.00,,,0.00,WUHU216HW,2013-02-14 05:47:00,
2013-02-13 22:57:00,41.6,27.0,30.12,SE,135,1.6,2.9,56,0.00,,,0.00,WUHU216HW,2013-02-14 05:57:00,
2013-02-13 23:07:00,41.4,26.8,30.12,SE,135,0.9,1.8,56,0.00,,,0.00,WUHU216HW,2013-02-14 06:07:00,
2013-02-13 23:17:00,41.0,26.9,30.12,SE,135,1.3,1.8,57,0.00,,,0.00,WUHU216HW,2013-02-14 06:17:00,
2013-02-13 23:27:00,40.7,27.0,30.11,ESE,113,1.1,1.8,58,0.00,,,0.00,WUHU216HW,2013-02-14 06:27:00,
2013-02-13 23:38:00,40.3,26.6,30.11,ESE,113,1.1,1.3,58,0.00,,,0.00,WUHU216HW,2013-02-14 06:38:00,
2013-02-13 23:48:00,40.1,26.9,30.11,SE,135,0.0,1.3,59,0.00,,,0.00,WUHU216HW,2013-02-14 06:48:00,
2013-02-13 23:58:00,40.0,26.7,30.11,NE,45,0.0,0.0,59,0.00,,,0.00,WUHU216HW,2013-02-14 06:58:00,